Time,TemperatureF,DewpointF,PressureIn,WindDirection,WindDirectionDegrees,WindSpeedMPH,WindSpeedGustMPH,Humidity,HourlyPrecipIn,Conditions,Clouds,dailyrainin,SoftwareType,DateUTC
2013-07-24 00:01:00,64.9,-23.0,29.35,SE,135,0.0,0.0,0,0.00,,,0.00,Rainwise IP-100,2013-07-24 04:01:00,
2013-07-24 00:06:00,64.9,-23.0,29.35,SE,135,0.0,0.0,0,0.00,,,0.00,Rainwise IP-100,2013-07-24 04:06:00,
2013-07-24 00:11:00,64.8,-23.0,29.35,SE,135,0.0,0.0,0,0.00,,,0.00,Rainwise IP-100,2013-07-24 04:11:00,
2013-07-24 00:16:00,64.7,-23.0,29.35,SE,135,0.0,0.0,0,0.00,,,0.00,Rainwise IP-100,2013-07-24 04:16:00,
2013-07-24 00:21:00,64.6,-23.0,29.35,SE,135,0.0,0.0,0,0.00,,,0.00,Rainwise IP-100,2013-07-24 04:21:00,
2013-07-24 00:26:00,64.7,-23.0,29.36,SE,135,0.0,0.0,0,0.00,,,0.00,Rainwise IP-100,2013-07-24 04:26:00,
2013-07-24 00:31:00,64.9,-23.0,29.36,SE,135,0.0,0.0,0,0.00,,,0.00,Rainwise IP-100,2013-07-24 04:31:00,
2013-07-24 00:36:00,64.9,-23.0,29.35,SE,135,0.0,0.0,0,0.00,,,0.00,Rainwise IP-100,2013-07-24 04:36:00,
2013-07-24 00:41:00,64.9,-23.0,29.35,SE,135,0.0,0.0,0,0.00,,,0.00,Rainwise IP-100,2013-07-24 04:41:00,
2013-07-24 00:46:00,64.8,-23.0,29.35,SE,135,0.0,0.0,0,0.00,,,0.00,Rainwise IP-100,2013-07-24 04:46:00,
2013-07-24 00:51:00,64.8,-23.0,29.36,SE,135,0.0,0.0,0,0.00,,,0.00,Rainwise IP-100,2013-07-24 04:51:00,
2013-07-24 00:56:00,64.9,-23.0,29.36,SE,135,0.0,0.0,0,0.00,,,0.00,Rainwise IP-100,2013-07-24 04:56:00,
2013-07-24 01:01:00,64.9,-23.0,29.37,SW,225,0.0,2.0,0,0.00,,,0.00,Rainwise IP-100,2013-07-24 05:01:00,
2013-07-24 01:06:00,65.1,-23.0,29.37,SW,225,0.0,2.0,0,0.00,,,0.00,Rainwise IP-100,2013-07-24 05:06:00,
2013-07-24 01:11:00,65.1,-23.0,29.37,WSW,247,0.0,2.0,0,0.00,,,0.00,Rainwise IP-100,2013-07-24 05:11:00,
2013-07-24 01:16:00,65.1,-23.0,29.37,SW,225,2.0,2.0,0,0.00,,,0.00,Rainwise IP-100,2013-07-24 05:16:00,
2013-07-24 01:21:00,64.9,-23.0,29.37,WSW,247,0.0,2.0,0,0.00,,,0.00,Rainwise IP-100,2013-07-24 05:21:00,
2013-07-24 01:26:00,64.9,-23.0,29.38,West,270,2.0,2.0,0,0.00,,,0.00,Rainwise IP-100,2013-07-24 05:26:00,
2013-07-24 01:31:00,64.9,-23.0,29.38,SW,225,1.0,2.0,0,0.00,,,0.00,Rainwise IP-100,2013-07-24 05:31:00,
2013-07-24 01:36:00,65.0,-23.0,29.38,SSW,202,1.0,2.0,0,0.00,,,0.00,Rainwise IP-100,2013-07-24 05:36:00,
2013-07-24 01:41:00,65.1,-23.0,29.38,SW,225,0.0,2.0,0,0.00,,,0.00,Rainwise IP-100,2013-07-24 05:41:00,
2013-07-24 01:46:00,65.1,-23.0,29.38,SW,225,0.0,2.0,0,0.00,,,0.00,Rainwise IP-100,2013-07-24 05:46:00,
2013-07-24 01:51:00,65.1,-23.0,29.38,SSW,202,0.0,4.0,0,0.00,,,0.00,Rainwise IP-100,2013-07-24 05:51:00,
2013-07-24 01:56:00,65.0,-23.0,29.38,SSW,202,0.0,0.0,0,0.00,,,0.00,Rainwise IP-100,2013-07-24 05:56:00,
2013-07-24 02:01:00,64.9,-23.0,29.37,WSW,247,0.0,2.0,0,0.00,,,0.00,Rainwise IP-100,2013-07-24 06:01:00,
2013-07-24 02:06:00,65.0,-23.0,29.37,WSW,247,0.0,2.0,0,0.00,,,0.00,Rainwise IP-100,2013-07-24 06:06:00,
2013-07-24 02:11:00,64.9,-23.0,29.37,WSW,247,0.0,2.0,0,0.00,,,0.00,Rainwise IP-100,2013-07-24 06:11:00,
2013-07-24 02:16:00,64.9,-23.0,29.37,WSW,247,0.0,0.0,0,0.00,,,0.00,Rainwise IP-100,2013-07-24 06:16:00,
2013-07-24 02:21:00,64.8,-23.0,29.37,SW,225,0.0,2.0,0,0.00,,,0.00,Rainwise IP-100,2013-07-24 06:21:00,
2013-07-24 02:26:00,64.8,-23.0,29.37,South,180,1.0,2.0,0,0.00,,,0.00,Rainwise IP-100,2013-07-24 06:26:00,
2013-07-24 02:31:00,64.9,-23.0,29.37,SE,135,1.0,2.0,0,0.00,,,0.00,Rainwise IP-100,2013-07-24 06:31:00,
2013-07-24 02:36:00,64.8,-23.0,29.37,ESE,112,1.0,2.0,0,0.00,,,0.00,Rainwise IP-100,2013-07-24 06:36:00,
2013-07-24 02:41:00,64.8,-23.0,29.37,ESE,112,0.0,2.0,0,0.00,,,0.00,Rainwise IP-100,2013-07-24 06:41:00,
2013-07-24 02:46:00,64.8,-23.0,29.37,ESE,112,2.0,0.0,0,0.00,,,0.00,Rainwise IP-100,2013-07-24 06:46:00,
2013-07-24 02:51:00,64.8,-23.0,29.37,ESE,112,0.0,2.0,0,0.00,,,0.00,Rainwise IP-100,2013-07-24 06:51:00,
2013-07-24 02:56:00,64.8,-23.0,29.37,ESE,112,0.0,1.0,0,0.00,,,0.00,Rainwise IP-100,2013-07-24 06:56:00,
2013-07-24 03:01:00,64.7,-23.0,29.37,ESE,112,0.0,0.0,0,0.00,,,0.00,Rainwise IP-100,2013-07-24 07:01:00,
2013-07-24 03:06:00,64.7,-23.0,29.37,SSW,202,1.0,2.0,0,0.00,,,0.00,Rainwise IP-100,2013-07-24 07:06:00,
2013-07-24 03:11:00,64.6,-23.0,29.38,SSW,202,2.0,2.0,0,0.00,,,0.00,Rainwise IP-100,2013-07-24 07:11:00,
2013-07-24 03:16:00,64.5,-23.0,29.38,South,180,0.0,2.0,0,0.00,,,0.00,Rainwise IP-100,2013-07-24 07:16:00,
2013-07-24 03:21:00,64.4,-23.0,29.39,South,180,0.0,0.0,0,0.00,,,0.00,Rainwise IP-100,2013-07-24 07:21:00,
2013-07-24 03:26:00,64.4,-23.0,29.39,ESE,112,2.0,2.0,0,0.00,,,0.00,Rainwise IP-100,2013-07-24 07:26:00,
2013-07-24 03:31:00,64.3,-23.0,29.39,SE,135,1.0,2.0,0,0.00,,,0.00,Rainwise IP-100,2013-07-24 07:31:00,
2013-07-24 03:36:00,64.1,-23.0,29.39,West,270,2.0,2.0,0,0.00,,,0.00,Rainwise IP-100,2013-07-24 07:36:00,
2013-07-24 03:41:00,64.1,-23.0,29.39,SSW,202,0.0,2.0,0,0.00,,,0.00,Rainwise IP-100,2013-07-24 07:41:00,
2013-07-24 03:46:00,63.9,-23.0,29.38,West,270,0.0,2.0,0,0.00,,,0.00,Rainwise IP-100,2013-07-24 07:46:00,
2013-07-24 03:51:00,63.9,-23.0,29.38,SSE,157,2.0,2.0,0,0.00,,,0.00,Rainwise IP-100,2013-07-24 07:51:00,
2013-07-24 03:56:00,63.9,-23.0,29.38,SW,225,0.0,2.0,0,0.00,,,0.00,Rainwise IP-100,2013-07-24 07:56:00,
2013-07-24 04:01:00,63.9,-23.0,29.39,SSW,202,1.0,2.0,0,0.00,,,0.00,Rainwise IP-100,2013-07-24 08:01:00,
2013-07-24 04:06:00,63.8,-23.0,29.39,SSW,202,1.0,2.0,0,0.00,,,0.00,Rainwise IP-100,2013-07-24 08:06:00,
2013-07-24 04:11:00,63.7,-23.0,29.39,SSW,202,0.0,2.0,0,0.00,,,0.00,Rainwise IP-100,2013-07-24 08:11:00,
2013-07-24 04:17:00,63.6,-23.0,29.39,West,270,1.0,2.0,0,0.00,,,0.00,Rainwise IP-100,2013-07-24 08:17:00,
2013-07-24 04:22:00,63.6,-23.0,29.39,West,270,0.0,2.0,0,0.00,,,0.00,Rainwise IP-100,2013-07-24 08:22:00,
2013-07-24 04:27:00,63.4,-23.0,29.38,WSW,247,0.0,2.0,0,0.00,,,0.00,Rainwise IP-100,2013-07-24 08:27:00,
2013-07-24 04:32:00,63.3,-23.0,29.38,WSW,247,1.0,2.0,0,0.00,,,0.00,Rainwise IP-100,2013-07-24 08:32:00,
2013-07-24 04:37:00,63.2,-23.0,29.39,SSW,202,0.0,2.0,0,0.00,,,0.00,Rainwise IP-100,2013-07-24 08:37:00,
2013-07-24 04:42:00,63.2,-23.0,29.39,SE,135,1.0,4.0,0,0.00,,,0.00,Rainwise IP-100,2013-07-24 08:42:00,
2013-07-24 04:47:00,63.1,-23.0,29.39,SE,135,2.0,2.0,0,0.00,,,0.00,Rainwise IP-100,2013-07-24 08:47:00,
2013-07-24 04:52:00,63.1,-23.0,29.39,SE,135,1.0,3.0,0,0.00,,,0.00,Rainwise IP-100,2013-07-24 08:52:00,
2013-07-24 04:57:00,63.1,-23.0,29.39,SE,135,1.0,2.0,0,0.00,,,0.00,Rainwise IP-100,2013-07-24 08:57:00,
2013-07-24 05:02:00,63.0,-23.0,29.39,East,90,1.0,2.0,0,0.00,,,0.00,Rainwise IP-100,2013-07-24 09:02:00,
2013-07-24 05:07:00,62.9,-23.0,29.39,ESE,112,1.0,2.0,0,0.00,,,0.00,Rainwise IP-100,2013-07-24 09:07:00,
2013-07-24 05:12:00,62.9,-23.0,29.39,ESE,112,1.0,2.0,0,0.00,,,0.00,Rainwise IP-100,2013-07-24 09:12:00,
2013-07-24 05:17:00,62.8,-23.0,29.39,East,90,0.0,2.0,0,0.00,,,0.00,Rainwise IP-100,2013-07-24 09:17:00,
2013-07-24 05:22:00,62.8,-23.0,29.39,East,90,0.0,0.0,0,0.00,,,0.00,Rainwise IP-100,2013-07-24 09:22:00,
2013-07-24 05:27:00,62.9,-23.0,29.40,East,90,1.0,2.0,0,0.00,,,0.00,Rainwise IP-100,2013-07-24 09:27:00,
2013-07-24 05:32:00,62.9,-23.0,29.40,East,90,0.0,2.0,0,0.00,,,0.00,Rainwise IP-100,2013-07-24 09:32:00,
2013-07-24 05:37:00,62.9,-23.0,29.40,East,90,0.0,0.0,0,0.00,,,0.00,Rainwise IP-100,2013-07-24 09:37:00,
2013-07-24 05:42:00,62.9,-23.0,29.40,East,90,0.0,0.0,0,0.00,,,0.00,Rainwise IP-100,2013-07-24 09:42:00,
2013-07-24 05:47:00,63.1,-23.0,29.40,East,90,0.0,0.0,0,0.00,,,0.00,Rainwise IP-100,2013-07-24 09:47:00,
2013-07-24 05:52:00,63.0,-23.0,29.40,East,90,0.0,0.0,0,0.00,,,0.00,Rainwise IP-100,2013-07-24 09:52:00,
2013-07-24 05:57:00,63.0,-23.0,29.39,East,90,0.0,0.0,0,0.00,,,0.00,Rainwise IP-100,2013-07-24 09:57:00,
2013-07-24 06:02:00,63.1,-23.0,29.39,East,90,0.0,2.0,0,0.00,,,0.00,Rainwise IP-100,2013-07-24 10:02:00,
2013-07-24 06:07:00,63.2,-23.0,29.39,East,90,0.0,0.0,0,0.00,,,0.00,Rainwise IP-100,2013-07-24 10:07:00,
2013-07-24 06:12:00,63.3,-23.0,29.39,East,90,0.0,0.0,0,0.00,,,0.00,Rainwise IP-100,2013-07-24 10:12:00,
2013-07-24 06:17:00,63.3,-23.0,29.40,East,90,0.0,0.0,0,0.00,,,0.00,Rainwise IP-100,2013-07-24 10:17:00,
2013-07-24 06:22:00,63.3,-23.0,29.40,East,90,0.0,0.0,0,0.00,,,0.00,Rainwise IP-100,2013-07-24 10:22:00,
2013-07-24 06:27:00,63.4,-23.0,29.40,ESE,112,0.0,2.0,0,0.00,,,0.00,Rainwise IP-100,2013-07-24 10:27:00,
2013-07-24 06:32:00,63.4,-23.0,29.40,ESE,112,0.0,0.0,0,0.00,,,0.00,Rainwise IP-100,2013-07-24 10:32:00,
2013-07-24 06:37:00,63.3,-23.0,29.40,ESE,112,0.0,0.0,0,0.00,,,0.00,Rainwise IP-100,2013-07-24 10:37:00,
2013-07-24 06:42:00,63.1,-23.0,29.39,ESE,112,0.0,0.0,0,0.00,,,0.00,Rainwise IP-100,2013-07-24 10:42:00,
2013-07-24 06:47:00,62.5,-23.0,29.39,WSW,247,1.0,0.0,0,0.00,,,0.00,Rainwise IP-100,2013-07-24 10:47:00,
2013-07-24 06:52:00,61.9,-23.0,29.39,WSW,247,2.0,2.0,0,0.00,,,0.00,Rainwise IP-100,2013-07-24 10:52:00,
2013-07-24 06:57:00,61.7,-23.0,29.39,NW,315,0.0,2.0,0,0.00,,,0.00,Rainwise IP-100,2013-07-24 10:57:00,
2013-07-24 07:02:00,61.7,-23.0,29.40,NW,315,2.0,2.0,0,0.00,,,0.00,Rainwise IP-100,2013-07-24 11:02:00,
2013-07-24 07:07:00,61.7,-23.0,29.40,NW,315,0.0,2.0,0,0.00,,,0.00,Rainwise IP-100,2013-07-24 11:07:00,
2013-07-24 07:12:00,61.8,-23.0,29.40,NW,315,0.0,2.0,0,0.00,,,0.00,Rainwise IP-100,2013-07-24 11:12:00,
2013-07-24 07:17:00,62.1,-23.0,29.40,NW,315,0.0,0.0,0,0.00,,,0.00,Rainwise IP-100,2013-07-24 11:17:00,
2013-07-24 07:22:00,62.5,-23.0,29.40,NW,315,0.0,0.0,0,0.00,,,0.00,Rainwise IP-100,2013-07-24 11:22:00,
2013-07-24 07:27:00,62.7,-23.0,29.41,NW,315,0.0,2.0,0,0.00,,,0.00,Rainwise IP-100,2013-07-24 11:27:00,
2013-07-24 07:32:00,62.7,-23.0,29.41,NW,315,0.0,2.0,0,0.00,,,0.00,Rainwise IP-100,2013-07-24 11:32:00,
2013-07-24 07:37:00,62.7,-23.0,29.41,NW,315,0.0,0.0,0,0.00,,,0.00,Rainwise IP-100,2013-07-24 11:37:00,
2013-07-24 07:42:00,62.8,-23.0,29.41,NW,315,0.0,0.0,0,0.00,,,0.00,Rainwise IP-100,2013-07-24 11:42:00,
2013-07-24 07:47:00,63.2,-23.0,29.41,NW,315,0.0,0.0,0,0.00,,,0.00,Rainwise IP-100,2013-07-24 11:47:00,
2013-07-24 07:52:00,63.5,-23.0,29.41,NW,315,0.0,0.0,0,0.00,,,0.00,Rainwise IP-100,2013-07-24 11:52:00,
2013-07-24 07:57:00,64.3,-23.0,29.42,West,270,1.0,2.0,0,0.00,,,0.00,Rainwise IP-100,2013-07-24 11:57:00,
2013-07-24 08:02:00,64.1,-23.0,29.42,West,270,0.0,2.0,0,0.00,,,0.00,Rainwise IP-100,2013-07-24 12:02:00,
2013-07-24 08:07:00,63.9,-23.0,29.42,NW,315,0.0,2.0,0,0.00,,,0.00,Rainwise IP-100,2013-07-24 12:07:00,
2013-07-24 08:12:00,64.9,-23.0,29.42,SSW,202,2.0,2.0,0,0.00,,,0.00,Rainwise IP-100,2013-07-24 12:12:00,
2013-07-24 08:17:00,65.5,-23.0,29.43,West,270,0.0,2.0,0,0.00,,,0.00,Rainwise IP-100,2013-07-24 12:17:00,
2013-07-24 08:22:00,65.5,-23.0,29.43,West,270,2.0,2.0,0,0.00,,,0.00,Rainwise IP-100,2013-07-24 12:22:00,
2013-07-24 08:27:00,65.7,-23.0,29.45,West,270,0.0,2.0,0,0.00,,,0.00,Rainwise IP-100,2013-07-24 12:27:00,
2013-07-24 08:32:00,66.8,-23.0,29.45,SSW,202,0.0,2.0,0,0.00,,,0.00,Rainwise IP-100,2013-07-24 12:32:00,
2013-07-24 08:37:00,67.8,-23.0,29.45,SW,225,2.0,2.0,0,0.00,,,0.00,Rainwise IP-100,2013-07-24 12:37:00,
2013-07-24 08:42:00,68.3,-23.0,29.46,WSW,247,1.0,2.0,0,0.00,,,0.00,Rainwise IP-100,2013-07-24 12:42:00,
2013-07-24 08:47:00,68.8,-23.0,29.46,South,180,1.0,4.0,0,0.00,,,0.00,Rainwise IP-100,2013-07-24 12:47:00,
2013-07-24 08:52:00,68.7,-23.0,29.46,SW,225,2.0,4.0,0,0.00,,,0.00,Rainwise IP-100,2013-07-24 12:52:00,
2013-07-24 08:57:00,69.8,-23.0,29.46,South,180,0.0,2.0,0,0.00,,,0.00,Rainwise IP-100,2013-07-24 12:57:00,
2013-07-24 09:02:00,70.1,-23.0,29.46,SSE,157,3.0,4.0,0,0.00,,,0.00,Rainwise IP-100,2013-07-24 13:02:00,
2013-07-24 09:07:00,70.6,-23.0,29.47,WSW,247,0.0,3.0,0,0.00,,,0.00,Rainwise IP-100,2013-07-24 13:07:00,
2013-07-24 09:12:00,70.9,-23.0,29.47,WNW,292,1.0,2.0,0,0.00,,,0.00,Rainwise IP-100,2013-07-24 13:12:00,
2013-07-24 09:17:00,71.1,-23.0,29.48,West,270,2.0,2.0,0,0.00,,,0.00,Rainwise IP-100,2013-07-24 13:17:00,
2013-07-24 09:22:00,71.5,42.0,29.48,SSE,157,5.0,5.0,34,0.00,,,0.00,Rainwise IP-100,2013-07-24 13:22:00,
2013-07-24 09:27:00,71.8,55.0,29.48,South,180,2.0,6.0,57,0.00,,,0.00,Rainwise IP-100,2013-07-24 13:27:00,
2013-07-24 09:32:00,71.9,60.0,29.48,South,180,8.0,8.0,66,0.00,,,0.00,Rainwise IP-100,2013-07-24 13:32:00,
2013-07-24 09:37:00,72.1,64.0,29.48,SW,225,5.0,8.0,77,0.00,,,0.00,Rainwise IP-100,2013-07-24 13:37:00,
2013-07-24 09:42:00,71.8,63.0,29.48,WSW,247,3.0,6.0,75,0.00,,,0.00,Rainwise IP-100,2013-07-24 13:42:00,
2013-07-24 09:47:00,71.5,60.0,29.48,WSW,247,2.0,6.0,67,0.00,,,0.00,Rainwise IP-100,2013-07-24 13:47:00,
2013-07-24 09:52:00,71.4,60.0,29.48,SSE,157,2.0,5.0,69,0.00,,,0.00,Rainwise IP-100,2013-07-24 13:52:00,
2013-07-24 09:57:00,72.0,65.0,29.49,South,180,1.0,5.0,78,0.00,,,0.00,Rainwise IP-100,2013-07-24 13:57:00,
2013-07-24 10:02:00,71.6,62.0,29.49,WSW,247,2.0,8.0,72,0.00,,,0.00,Rainwise IP-100,2013-07-24 14:02:00,
2013-07-24 10:07:00,71.1,60.0,29.49,SW,225,2.0,7.0,68,0.00,,,0.00,Rainwise IP-100,2013-07-24 14:07:00,
2013-07-24 10:12:00,70.6,53.0,29.49,SW,225,0.0,6.0,55,0.00,,,0.00,Rainwise IP-100,2013-07-24 14:12:00,
2013-07-24 10:17:00,70.9,53.0,29.48,WSW,247,1.0,5.0,54,0.00,,,0.00,Rainwise IP-100,2013-07-24 14:17:00,
2013-07-24 10:22:00,70.8,54.0,29.48,SW,225,2.0,7.0,56,0.00,,,0.00,Rainwise IP-100,2013-07-24 14:22:00,
2013-07-24 10:27:00,70.1,48.0,29.48,SW,225,1.0,9.0,46,0.00,,,0.00,Rainwise IP-100,2013-07-24 14:27:00,
2013-07-24 10:32:00,70.8,51.0,29.48,SSW,202,4.0,7.0,50,0.00,,,0.00,Rainwise IP-100,2013-07-24 14:32:00,
2013-07-24 10:37:00,71.1,50.0,29.49,WSW,247,5.0,7.0,47,0.00,,,0.00,Rainwise IP-100,2013-07-24 14:37:00,
2013-07-24 10:42:00,71.9,61.0,29.49,ESE,112,2.0,7.0,69,0.00,,,0.00,Rainwise IP-100,2013-07-24 14:42:00,
2013-07-24 10:47:00,72.6,62.0,29.49,SW,225,2.0,9.0,70,0.00,,,0.00,Rainwise IP-100,2013-07-24 14:47:00,
2013-07-24 10:52:00,72.9,66.0,29.49,SSW,202,2.0,6.0,78,0.00,,,0.00,Rainwise IP-100,2013-07-24 14:52:00,
2013-07-24 10:57:00,73.1,66.0,29.49,SE,135,1.0,4.0,79,0.00,,,0.00,Rainwise IP-100,2013-07-24 14:57:00,
2013-07-24 11:02:00,72.9,65.0,29.50,SSW,202,3.0,6.0,77,0.00,,,0.00,Rainwise IP-100,2013-07-24 15:02:00,
2013-07-24 11:07:00,73.1,66.0,29.50,WSW,247,3.0,8.0,80,0.00,,,0.00,Rainwise IP-100,2013-07-24 15:07:00,
2013-07-24 11:12:00,72.9,61.0,29.51,WSW,247,4.0,4.0,67,0.00,,,0.00,Rainwise IP-100,2013-07-24 15:12:00,
2013-07-24 11:17:00,72.8,63.0,29.51,SSW,202,6.0,6.0,72,0.00,,,0.00,Rainwise IP-100,2013-07-24 15:17:00,
2013-07-24 11:22:00,73.0,64.0,29.52,South,180,2.0,6.0,74,0.00,,,0.00,Rainwise IP-100,2013-07-24 15:22:00,
2013-07-24 11:27:00,73.1,64.0,29.51,ESE,112,6.0,6.0,74,0.00,,,0.00,Rainwise IP-100,2013-07-24 15:27:00,
2013-07-24 11:32:00,72.7,61.0,29.52,SE,135,1.0,7.0,67,0.00,,,0.00,Rainwise IP-100,2013-07-24 15:32:00,
2013-07-24 11:37:00,71.9,61.0,29.52,WSW,247,2.0,6.0,68,0.00,,,0.00,Rainwise IP-100,2013-07-24 15:37:00,
2013-07-24 11:42:00,70.9,52.0,29.52,WSW,247,2.0,5.0,51,0.00,,,0.00,Rainwise IP-100,2013-07-24 15:42:00,
2013-07-24 11:47:00,69.8,26.0,29.52,SE,135,1.0,5.0,19,0.00,,,0.00,Rainwise IP-100,2013-07-24 15:47:00,
2013-07-24 11:52:00,69.7,32.0,29.51,SSW,202,2.0,2.0,25,0.00,,,0.00,Rainwise IP-100,2013-07-24 15:52:00,
2013-07-24 11:57:00,69.5,33.0,29.51,South,180,2.0,2.0,26,0.00,,,0.00,Rainwise IP-100,2013-07-24 15:57:00,
2013-07-24 12:02:00,69.9,40.0,29.51,SE,135,2.0,4.0,34,0.00,,,0.00,Rainwise IP-100,2013-07-24 16:02:00,
2013-07-24 12:07:00,70.4,39.0,29.52,WSW,247,2.0,2.0,32,0.00,,,0.00,Rainwise IP-100,2013-07-24 16:07:00,
2013-07-24 12:12:00,70.1,33.0,29.52,SSW,202,3.0,5.0,25,0.00,,,0.00,Rainwise IP-100,2013-07-24 16:12:00,
2013-07-24 12:17:00,70.2,29.0,29.52,WSW,247,1.0,4.0,21,0.00,,,0.00,Rainwise IP-100,2013-07-24 16:17:00,
2013-07-24 12:22:00,71.4,45.0,29.52,SSW,202,2.0,4.0,39,0.00,,,0.00,Rainwise IP-100,2013-07-24 16:22:00,
2013-07-24 12:27:00,72.4,54.0,29.52,SE,135,5.0,5.0,54,0.00,,,0.00,Rainwise IP-100,2013-07-24 16:27:00,
2013-07-24 12:32:00,73.1,61.0,29.52,South,180,3.0,8.0,67,0.00,,,0.00,Rainwise IP-100,2013-07-24 16:32:00,
2013-07-24 12:37:00,73.9,64.0,29.52,SE,135,0.0,6.0,71,0.00,,,0.00,Rainwise IP-100,2013-07-24 16:37:00,
2013-07-24 12:42:00,74.6,67.0,29.53,NW,315,1.0,9.0,77,0.00,,,0.00,Rainwise IP-100,2013-07-24 16:42:00,
2013-07-24 12:47:00,74.8,68.0,29.53,SW,225,1.0,7.0,80,0.00,,,0.00,Rainwise IP-100,2013-07-24 16:47:00,
2013-07-24 12:52:00,75.0,68.0,29.53,SW,225,0.0,6.0,79,0.00,,,0.00,Rainwise IP-100,2013-07-24 16:52:00,
2013-07-24 12:57:00,75.7,69.0,29.53,SSW,202,2.0,8.0,81,0.00,,,0.00,Rainwise IP-100,2013-07-24 16:57:00,
2013-07-24 13:02:00,75.6,70.0,29.53,WSW,247,3.0,6.0,83,0.00,,,0.00,Rainwise IP-100,2013-07-24 17:02:00,
2013-07-24 13:07:00,75.5,70.0,29.54,WSW,247,2.0,6.0,84,0.00,,,0.00,Rainwise IP-100,2013-07-24 17:07:00,
2013-07-24 13:12:00,75.4,71.0,29.54,SSE,157,0.0,7.0,85,0.00,,,0.00,Rainwise IP-100,2013-07-24 17:12:00,
2013-07-24 13:17:00,75.6,69.0,29.53,ESE,112,1.0,7.0,82,0.00,,,0.00,Rainwise IP-100,2013-07-24 17:17:00,
2013-07-24 13:22:00,75.4,70.0,29.53,ESE,112,2.0,7.0,84,0.00,,,0.00,Rainwise IP-100,2013-07-24 17:22:00,
2013-07-24 13:27:00,75.5,70.0,29.53,WSW,247,2.0,0.0,83,0.00,,,0.00,Rainwise IP-100,2013-07-24 17:27:00,
2013-07-24 13:32:00,75.6,70.0,29.53,SW,225,4.0,9.0,84,0.00,,,0.00,Rainwise IP-100,2013-07-24 17:32:00,
2013-07-24 13:37:00,74.7,66.0,29.53,West,270,1.0,9.0,75,0.00,,,0.00,Rainwise IP-100,2013-07-24 17:37:00,
2013-07-24 13:42:00,74.7,66.0,29.53,SSW,202,2.0,9.0,76,0.00,,,0.00,Rainwise IP-100,2013-07-24 17:42:00,
2013-07-24 13:47:00,74.7,66.0,29.53,West,270,2.0,7.0,74,0.00,,,0.00,Rainwise IP-100,2013-07-24 17:47:00,
2013-07-24 13:52:00,75.2,69.0,29.53,SW,225,7.0,7.0,81,0.00,,,0.00,Rainwise IP-100,2013-07-24 17:52:00,
2013-07-24 13:57:00,75.2,68.0,29.53,South,180,5.0,7.0,79,0.00,,,0.00,Rainwise IP-100,2013-07-24 17:57:00,
2013-07-24 14:02:00,75.3,68.0,29.53,WSW,247,4.0,7.0,79,0.00,,,0.00,Rainwise IP-100,2013-07-24 18:02:00,
2013-07-24 14:07:00,75.3,70.0,29.54,SSW,202,2.0,7.0,84,0.00,,,0.00,Rainwise IP-100,2013-07-24 18:07:00,
2013-07-24 14:12:00,76.1,70.0,29.54,WSW,247,2.0,7.0,83,0.00,,,0.00,Rainwise IP-100,2013-07-24 18:12:00,
2013-07-24 14:17:00,75.6,69.0,29.53,SSW,202,3.0,9.0,82,0.00,,,0.00,Rainwise IP-100,2013-07-24 18:17:00,
2013-07-24 14:22:00,75.9,69.0,29.53,SW,225,2.0,6.0,80,0.00,,,0.00,Rainwise IP-100,2013-07-24 18:22:00,
2013-07-24 14:27:00,76.9,71.0,29.53,WSW,247,2.0,6.0,83,0.00,,,0.00,Rainwise IP-100,2013-07-24 18:27:00,
2013-07-24 14:32:00,77.5,73.0,29.54,SE,135,0.0,8.0,85,0.00,,,0.00,Rainwise IP-100,2013-07-24 18:32:00,
2013-07-24 14:37:00,77.7,73.0,29.53,SE,135,3.0,7.0,85,0.00,,,0.00,Rainwise IP-100,2013-07-24 18:37:00,
2013-07-24 14:42:00,78.3,73.0,29.54,South,180,1.0,6.0,86,0.00,,,0.00,Rainwise IP-100,2013-07-24 18:42:00,
2013-07-24 14:47:00,78.2,74.0,29.53,South,180,5.0,9.0,87,0.00,,,0.00,Rainwise IP-100,2013-07-24 18:47:00,
2013-07-24 14:52:00,78.2,73.0,29.53,SSW,202,2.0,6.0,86,0.00,,,0.00,Rainwise IP-100,2013-07-24 18:52:00,
2013-07-24 14:57:00,78.2,74.0,29.53,SSW,202,2.0,5.0,87,0.00,,,0.00,Rainwise IP-100,2013-07-24 18:57:00,
2013-07-24 15:02:00,77.9,73.0,29.54,SSE,157,3.0,6.0,86,0.00,,,0.00,Rainwise IP-100,2013-07-24 19:02:00,
2013-07-24 15:07:00,78.2,74.0,29.54,SW,225,2.0,6.0,87,0.00,,,0.00,Rainwise IP-100,2013-07-24 19:07:00,
2013-07-24 15:12:00,77.9,73.0,29.54,SSE,157,6.0,7.0,87,0.00,,,0.00,Rainwise IP-100,2013-07-24 19:12:00,
2013-07-24 15:17:00,77.8,73.0,29.54,SSE,157,2.0,9.0,86,0.00,,,0.00,Rainwise IP-100,2013-07-24 19:17:00,
2013-07-24 15:22:00,78.3,74.0,29.54,SSE,157,2.0,9.0,87,0.00,,,0.00,Rainwise IP-100,2013-07-24 19:22:00,
2013-07-24 15:27:00,78.3,74.0,29.54,South,180,4.0,9.0,87,0.00,,,0.00,Rainwise IP-100,2013-07-24 19:27:00,
2013-07-24 15:32:00,78.3,74.0,29.54,WSW,247,2.0,7.0,87,0.00,,,0.00,Rainwise IP-100,2013-07-24 19:32:00,
2013-07-24 15:37:00,78.3,74.0,29.54,WSW,247,7.0,7.0,87,0.00,,,0.00,Rainwise IP-100,2013-07-24 19:37:00,
2013-07-24 15:42:00,78.3,74.0,29.54,WSW,247,4.0,8.0,87,0.00,,,0.00,Rainwise IP-100,2013-07-24 19:42:00,
2013-07-24 15:47:00,78.0,74.0,29.55,WSW,247,0.0,6.0,88,0.00,,,0.00,Rainwise IP-100,2013-07-24 19:47:00,
2013-07-24 15:52:00,78.3,74.0,29.55,SSE,157,3.0,9.0,87,0.00,,,0.00,Rainwise IP-100,2013-07-24 19:52:00,
2013-07-24 15:57:00,78.1,74.0,29.55,ESE,112,3.0,9.0,88,0.00,,,0.00,Rainwise IP-100,2013-07-24 19:57:00,
2013-07-24 16:02:00,78.0,74.0,29.55,WSW,247,1.0,9.0,88,0.00,,,0.00,Rainwise IP-100,2013-07-24 20:02:00,
2013-07-24 16:07:00,78.5,74.0,29.56,SSE,157,1.0,9.0,87,0.00,,,0.00,Rainwise IP-100,2013-07-24 20:07:00,
2013-07-24 16:12:00,78.7,74.0,29.56,South,180,2.0,6.0,87,0.00,,,0.00,Rainwise IP-100,2013-07-24 20:12:00,
2013-07-24 16:17:00,78.5,74.0,29.56,SW,225,4.0,4.0,87,0.00,,,0.00,Rainwise IP-100,2013-07-24 20:17:00,
2013-07-24 16:22:00,78.2,74.0,29.57,West,270,4.0,7.0,87,0.00,,,0.00,Rainwise IP-100,2013-07-24 20:22:00,
2013-07-24 16:27:00,76.2,72.0,29.58,West,270,2.0,7.0,87,0.00,,,0.00,Rainwise IP-100,2013-07-24 20:27:00,
2013-07-24 16:32:00,73.9,68.0,29.58,SE,135,2.0,8.0,82,0.00,,,0.00,Rainwise IP-100,2013-07-24 20:32:00,
2013-07-24 16:37:00,73.3,65.0,29.58,WSW,247,3.0,9.0,75,0.00,,,0.00,Rainwise IP-100,2013-07-24 20:37:00,
2013-07-24 16:42:00,73.0,62.0,29.57,SSE,157,0.0,9.0,70,0.00,,,0.00,Rainwise IP-100,2013-07-24 20:42:00,
2013-07-24 16:47:00,72.7,58.0,29.57,SSW,202,2.0,6.0,60,0.00,,,0.00,Rainwise IP-100,2013-07-24 20:47:00,
2013-07-24 16:52:00,73.0,58.0,29.57,SSW,202,2.0,5.0,60,0.00,,,0.00,Rainwise IP-100,2013-07-24 20:52:00,
2013-07-24 16:57:00,72.9,57.0,29.57,SW,225,2.0,4.0,58,0.00,,,0.00,Rainwise IP-100,2013-07-24 20:57:00,
2013-07-24 17:02:00,72.8,53.0,29.56,SW,225,0.0,6.0,51,0.00,,,0.00,Rainwise IP-100,2013-07-24 21:02:00,
2013-07-24 17:07:00,72.8,53.0,29.57,SE,135,2.0,2.0,50,0.00,,,0.00,Rainwise IP-100,2013-07-24 21:07:00,
2013-07-24 17:12:00,72.9,54.0,29.57,SSW,202,2.0,2.0,53,0.00,,,0.00,Rainwise IP-100,2013-07-24 21:12:00,
2013-07-24 17:17:00,72.9,56.0,29.57,SW,225,0.0,2.0,56,0.00,,,0.00,Rainwise IP-100,2013-07-24 21:17:00,
2013-07-24 17:22:00,72.8,54.0,29.57,SW,225,1.0,2.0,53,0.00,,,0.00,Rainwise IP-100,2013-07-24 21:22:00,
2013-07-24 17:27:00,73.3,57.0,29.58,NNW,337,2.0,2.0,58,0.00,,,0.00,Rainwise IP-100,2013-07-24 21:27:00,
2013-07-24 17:32:00,74.3,65.0,29.58,NNW,337,1.0,2.0,72,0.00,,,0.00,Rainwise IP-100,2013-07-24 21:32:00,
2013-07-24 17:37:00,75.2,67.0,29.58,WNW,292,0.0,2.0,76,0.00,,,0.00,Rainwise IP-100,2013-07-24 21:37:00,
2013-07-24 17:42:00,75.8,69.0,29.58,NNW,337,1.0,2.0,80,0.00,,,0.00,Rainwise IP-100,2013-07-24 21:42:00,
2013-07-24 17:47:00,75.5,70.0,29.58,WSW,247,2.0,4.0,83,0.00,,,0.00,Rainwise IP-100,2013-07-24 21:47:00,
2013-07-24 17:52:00,74.6,67.0,29.58,WSW,247,2.0,4.0,77,0.00,,,0.00,Rainwise IP-100,2013-07-24 21:52:00,
2013-07-24 17:57:00,74.9,68.0,29.59,NW,315,2.0,3.0,78,0.00,,,0.00,Rainwise IP-100,2013-07-24 21:57:00,
2013-07-24 18:02:00,74.9,69.0,29.59,West,270,2.0,2.0,81,0.00,,,0.00,Rainwise IP-100,2013-07-24 22:02:00,
2013-07-24 18:07:00,75.2,69.0,29.59,WNW,292,2.0,2.0,82,0.00,,,0.00,Rainwise IP-100,2013-07-24 22:07:00,
2013-07-24 18:12:00,75.6,70.0,29.60,NNW,337,1.0,5.0,84,0.00,,,0.00,Rainwise IP-100,2013-07-24 22:12:00,
2013-07-24 18:17:00,75.5,70.0,29.60,North,360,1.0,4.0,84,0.00,,,0.00,Rainwise IP-100,2013-07-24 22:17:00,
2013-07-24 18:22:00,75.8,71.0,29.61,NW,315,2.0,4.0,86,0.00,,,0.00,Rainwise IP-100,2013-07-24 22:22:00,
2013-07-24 18:27:00,76.1,71.0,29.61,North,360,1.0,4.0,86,0.00,,,0.00,Rainwise IP-100,2013-07-24 22:27:00,
2013-07-24 18:32:00,76.3,71.0,29.61,WSW,247,1.0,2.0,86,0.00,,,0.00,Rainwise IP-100,2013-07-24 22:32:00,
2013-07-24 18:37:00,76.1,71.0,29.61,North,360,0.0,2.0,86,0.00,,,0.00,Rainwise IP-100,2013-07-24 22:37:00,
2013-07-24 18:42:00,76.5,72.0,29.62,East,90,0.0,2.0,87,0.00,,,0.00,Rainwise IP-100,2013-07-24 22:42:00,
2013-07-24 18:47:00,76.5,72.0,29.62,SE,135,0.0,1.0,87,0.00,,,0.00,Rainwise IP-100,2013-07-24 22:47:00,
2013-07-24 18:52:00,76.3,72.0,29.62,North,360,2.0,3.0,87,0.00,,,0.00,Rainwise IP-100,2013-07-24 22:52:00,
2013-07-24 18:57:00,75.8,71.0,29.63,West,270,1.0,2.0,86,0.00,,,0.00,Rainwise IP-100,2013-07-24 22:57:00,
2013-07-24 19:02:00,74.4,70.0,29.63,NW,315,1.0,2.0,87,0.00,,,0.00,Rainwise IP-100,2013-07-24 23:02:00,
2013-07-24 19:07:00,73.4,68.0,29.63,NW,315,0.0,2.0,83,0.00,,,0.00,Rainwise IP-100,2013-07-24 23:07:00,
2013-07-24 19:12:00,73.0,67.0,29.64,NW,315,0.0,0.0,82,0.00,,,0.00,Rainwise IP-100,2013-07-24 23:12:00,
2013-07-24 19:17:00,72.8,66.0,29.64,NNW,337,0.0,2.0,79,0.00,,,0.00,Rainwise IP-100,2013-07-24 23:17:00,
2013-07-24 19:22:00,72.5,64.0,29.64,NNW,337,1.0,2.0,74,0.00,,,0.00,Rainwise IP-100,2013-07-24 23:22:00,
2013-07-24 19:27:00,71.9,61.0,29.64,WSW,247,1.0,2.0,69,0.00,,,0.00,Rainwise IP-100,2013-07-24 23:27:00,
2013-07-24 19:32:00,71.0,64.0,29.64,WNW,292,0.0,2.0,79,0.00,,,0.00,Rainwise IP-100,2013-07-24 23:32:00,
2013-07-24 19:37:00,70.6,63.0,29.65,WSW,247,2.0,2.0,78,0.00,,,0.00,Rainwise IP-100,2013-07-24 23:37:00,
2013-07-24 19:42:00,70.7,63.0,29.65,NNW,337,0.0,2.0,79,0.00,,,0.00,Rainwise IP-100,2013-07-24 23:42:00,
2013-07-24 19:47:00,70.7,62.0,29.65,South,180,0.0,2.0,75,0.00,,,0.00,Rainwise IP-100,2013-07-24 23:47:00,
2013-07-24 19:52:00,70.7,66.0,29.66,NNW,337,2.0,4.0,86,0.00,,,0.00,Rainwise IP-100,2013-07-24 23:52:00,
2013-07-24 19:57:00,70.9,67.0,29.65,NE,45,1.0,4.0,89,0.00,,,0.00,Rainwise IP-100,2013-07-24 23:57:00,
2013-07-24 20:02:00,70.9,67.0,29.65,East,90,1.0,4.0,88,0.00,,,0.00,Rainwise IP-100,2013-07-25 00:02:00,
2013-07-24 20:07:00,70.8,67.0,29.65,SE,135,2.0,3.0,90,0.00,,,0.00,Rainwise IP-100,2013-07-25 00:07:00,
2013-07-24 20:12:00,70.7,67.0,29.66,West,270,0.0,2.0,90,0.00,,,0.00,Rainwise IP-100,2013-07-25 00:12:00,
2013-07-24 20:17:00,70.5,67.0,29.66,NNE,22,0.0,2.0,90,0.00,,,0.00,Rainwise IP-100,2013-07-25 00:17:00,
2013-07-24 20:22:00,70.3,67.0,29.67,SW,225,3.0,3.0,90,0.00,,,0.00,Rainwise IP-100,2013-07-25 00:22:00,
2013-07-24 20:27:00,70.3,67.0,29.68,SW,225,2.0,9.0,90,0.00,,,0.00,Rainwise IP-100,2013-07-25 00:27:00,
2013-07-24 20:32:00,70.0,67.0,29.68,SW,225,1.0,3.0,90,0.00,,,0.00,Rainwise IP-100,2013-07-25 00:32:00,
2013-07-24 20:37:00,69.6,66.0,29.69,NW,315,1.0,3.0,91,0.00,,,0.00,Rainwise IP-100,2013-07-25 00:37:00,
2013-07-24 20:42:00,69.3,66.0,29.69,WNW,292,2.0,2.0,91,0.00,,,0.00,Rainwise IP-100,2013-07-25 00:42:00,
2013-07-24 20:47:00,68.9,66.0,29.69,SSW,202,2.0,4.0,92,0.00,,,0.00,Rainwise IP-100,2013-07-25 00:47:00,
2013-07-24 20:52:00,68.8,66.0,29.68,NW,315,2.0,7.0,92,0.00,,,0.00,Rainwise IP-100,2013-07-25 00:52:00,
2013-07-24 20:57:00,68.6,66.0,29.68,NW,315,1.0,5.0,91,0.00,,,0.00,Rainwise IP-100,2013-07-25 00:57:00,
2013-07-24 21:02:00,68.4,66.0,29.69,West,270,3.0,9.0,91,0.00,,,0.00,Rainwise IP-100,2013-07-25 01:02:00,
2013-07-24 21:07:00,68.3,65.0,29.69,NNW,337,2.0,0.0,90,0.00,,,0.00,Rainwise IP-100,2013-07-25 01:07:00,
2013-07-24 21:12:00,68.0,65.0,29.69,NNW,337,3.0,7.0,91,0.00,,,0.00,Rainwise IP-100,2013-07-25 01:12:00,
2013-07-24 21:17:00,67.7,65.0,29.69,NNW,337,2.0,9.0,91,0.00,,,0.00,Rainwise IP-100,2013-07-25 01:17:00,
2013-07-24 21:22:00,67.3,64.0,29.69,SW,225,4.0,9.0,91,0.00,,,0.00,Rainwise IP-100,2013-07-25 01:22:00,
2013-07-24 21:27:00,66.9,64.0,29.70,WSW,247,4.0,7.0,90,0.00,,,0.00,Rainwise IP-100,2013-07-25 01:27:00,
2013-07-24 21:32:00,66.6,63.0,29.71,NE,45,2.0,6.0,88,0.00,,,0.00,Rainwise IP-100,2013-07-25 01:32:00,
2013-07-24 21:37:00,66.3,63.0,29.72,ESE,112,1.0,6.0,89,0.00,,,0.00,Rainwise IP-100,2013-07-25 01:37:00,
2013-07-24 21:42:00,66.0,63.0,29.72,East,90,3.0,3.0,90,0.00,,,0.00,Rainwise IP-100,2013-07-25 01:42:00,
2013-07-24 21:47:00,65.8,62.0,29.72,WNW,292,1.0,7.0,89,0.00,,,0.00,Rainwise IP-100,2013-07-25 01:47:00,
2013-07-24 21:52:00,65.6,62.0,29.72,North,360,1.0,5.0,90,0.00,,,0.00,Rainwise IP-100,2013-07-25 01:52:00,
2013-07-24 21:57:00,65.4,62.0,29.72,WSW,247,0.0,6.0,90,0.00,,,0.00,Rainwise IP-100,2013-07-25 01:57:00,
2013-07-24 22:02:00,65.1,62.0,29.72,SW,225,4.0,5.0,92,0.00,,,0.00,Rainwise IP-100,2013-07-25 02:02:00,
2013-07-24 22:07:00,64.8,62.0,29.72,WNW,292,0.0,6.0,93,0.00,,,0.00,Rainwise IP-100,2013-07-25 02:07:00,
2013-07-24 22:12:00,64.4,62.0,29.72,North,360,0.0,2.0,94,0.00,,,0.00,Rainwise IP-100,2013-07-25 02:12:00,
2013-07-24 22:17:00,64.1,61.0,29.72,NNW,337,4.0,8.0,92,0.00,,,0.00,Rainwise IP-100,2013-07-25 02:17:00,
2013-07-24 22:22:00,64.1,61.0,29.73,North,360,3.0,9.0,90,0.00,,,0.00,Rainwise IP-100,2013-07-25 02:22:00,
2013-07-24 22:27:00,64.1,60.0,29.73,North,360,0.0,7.0,89,0.00,,,0.00,Rainwise IP-100,2013-07-25 02:27:00,
2013-07-24 22:32:00,63.9,61.0,29.74,South,180,0.0,4.0,91,0.00,,,0.00,Rainwise IP-100,2013-07-25 02:32:00,
2013-07-24 22:37:00,63.8,61.0,29.74,East,90,0.0,4.0,93,0.00,,,0.00,Rainwise IP-100,2013-07-25 02:37:00,
2013-07-24 22:42:00,63.6,61.0,29.73,North,360,1.0,5.0,93,0.00,,,0.00,Rainwise IP-100,2013-07-25 02:42:00,
2013-07-24 22:47:00,63.5,61.0,29.73,SW,225,0.0,7.0,93,0.00,,,0.00,Rainwise IP-100,2013-07-25 02:47:00,
2013-07-24 22:52:00,63.4,61.0,29.73,North,360,3.0,5.0,91,0.00,,,0.00,Rainwise IP-100,2013-07-25 02:52:00,
2013-07-24 22:57:00,63.4,61.0,29.74,NW,315,5.0,8.0,91,0.00,,,0.00,Rainwise IP-100,2013-07-25 02:57:00,
2013-07-24 23:02:00,63.3,60.0,29.74,South,180,1.0,8.0,91,0.00,,,0.00,Rainwise IP-100,2013-07-25 03:02:00,
2013-07-24 23:07:00,63.1,60.0,29.74,SSW,202,1.0,4.0,91,0.00,,,0.00,Rainwise IP-100,2013-07-25 03:07:00,
2013-07-24 23:12:00,63.0,60.0,29.74,SE,135,0.0,7.0,91,0.00,,,0.00,Rainwise IP-100,2013-07-25 03:12:00,
2013-07-24 23:17:00,62.9,60.0,29.75,NNW,337,2.0,4.0,91,0.00,,,0.00,Rainwise IP-100,2013-07-25 03:17:00,
2013-07-24 23:22:00,62.8,60.0,29.75,WNW,292,1.0,5.0,92,0.00,,,0.00,Rainwise IP-100,2013-07-25 03:22:00,
2013-07-24 23:27:00,62.7,60.0,29.75,South,180,1.0,5.0,93,0.00,,,0.00,Rainwise IP-100,2013-07-25 03:27:00,
2013-07-24 23:32:00,62.6,60.0,29.75,North,360,0.0,6.0,92,0.00,,,0.00,Rainwise IP-100,2013-07-25 03:32:00,
2013-07-24 23:37:00,62.5,60.0,29.75,NNW,337,1.0,5.0,92,0.00,,,0.00,Rainwise IP-100,2013-07-25 03:37:00,
2013-07-24 23:42:00,62.4,60.0,29.75,North,360,0.0,3.0,93,0.00,,,0.00,Rainwise IP-100,2013-07-25 03:42:00,
2013-07-24 23:47:00,62.3,60.0,29.76,East,90,1.0,5.0,92,0.00,,,0.00,Rainwise IP-100,2013-07-25 03:47:00,
2013-07-24 23:52:00,62.2,60.0,29.76,NW,315,1.0,5.0,92,0.00,,,0.00,Rainwise IP-100,2013-07-25 03:52:00,
2013-07-24 23:57:00,62.1,60.0,29.76,North,360,3.0,7.0,93,0.00,,,0.00,Rainwise IP-100,2013-07-25 03:57:00,